This is the latest recevied weather packets stored in our database for station/object KD8JAM. If no packets are shown the sender has not sent any weather packets the latest 10 day(s).
| Time | Temp. | Humidity | Pressure | Rain* | Wind** | Luminosity | Snow |
|---|---|---|---|---|---|---|---|
| 1777891406 | 13.33° C | 49% | 991.8 hPa | 0 mm | - | 0 W/m² | - |
| 1777891101 | 12.78° C | 51% | 991.7 hPa | 0 mm | - | 0 W/m² | - |
| 1777890796 | 12.22° C | 52% | 991.9 hPa | 0 mm | - | 0 W/m² | - |
| 1777890493 | 12.22° C | 52% | 992 hPa | 0 mm | - | 0 W/m² | - |
| 1777890189 | 11.67° C | 53% | 991.9 hPa | 0 mm | - | 0 W/m² | - |
| 1777889885 | 11.11° C | 54% | 992.2 hPa | 0 mm | - | 0 W/m² | - |
| 1777889583 | 11.11° C | 53% | 992 hPa | 0 mm | - | 0 W/m² | - |
| 1777889280 | 11.11° C | 54% | 992.2 hPa | 0 mm | - | 0 W/m² | - |
| 1777888977 | 11.11° C | 54% | 992.4 hPa | 0 mm | - | 0 W/m² | - |
| 1777888675 | 11.11° C | 55% | 992.4 hPa | 0 mm | - | 0 W/m² | - |
| 1777888370 | 11.11° C | 54% | 992.6 hPa | 0 mm | - | 0 W/m² | - |
| 1777888067 | 10.56° C | 53% | 992.8 hPa | 0 mm | - | 0 W/m² | - |
| 1777887764 | 11.11° C | 53% | 993 hPa | 0 mm | - | 0 W/m² | - |
| 1777887461 | 11.11° C | 52% | 992.9 hPa | 0 mm | - | 0 W/m² | - |
| 1777887156 | 10.56° C | 52% | 993.2 hPa | 0 mm | - | 0 W/m² | - |
| 1777886853 | 10.56° C | 53% | 993 hPa | 0 mm | - | 0 W/m² | - |
| 1777886548 | 10.56° C | 53% | 993.2 hPa | 0 mm | - | 0 W/m² | - |
| 1777886247 | 10.56° C | 52% | 993.7 hPa | 0 mm | - | 0 W/m² | - |
| 1777885944 | 10.56° C | 54% | 993.6 hPa | 0 mm | - | 0 W/m² | - |
| 1777885643 | 10.56° C | 53% | 994 hPa | 0 mm | - | 0 W/m² | - |
| 1777885340 | 10.56° C | 53% | 993.9 hPa | 0 mm | - | 0 W/m² | - |
| 1777885039 | 10.56° C | 52% | 994.2 hPa | 0 mm | - | 0 W/m² | - |
| 1777884734 | 10.56° C | 53% | 994.4 hPa | 0 mm | - | 0 W/m² | - |
| 1777884431 | 10.56° C | 51% | 994.5 hPa | 0 mm | - | 0 W/m² | - |
| 1777884128 | 10.56° C | 52% | 994.9 hPa | 0 mm | - | 0 W/m² | - |
* Rain latest hour (hover to see other rain measurements)
** Current wind speed in m/s (hover to see current wind gust speed)